When you browse on this site, cookies collect data to enhance your experience and personalize the content and advertising you see.
Visit our Privacy Policy to learn more. By continuing to use the site, you agree to this use of cookies and data.
  • en France
  • Liste des pays
  • À 7 jours
  • Température de l'eau
  • Carte météo
  • Widgets météo
  • user-avatar
    Se connecter

    Météo par heure à Prutz

    Ce jour, 21 Août, Mercredi

    Heure Température Précipitation Vent Pression Humidité
    00:00 +9°C° 2.1 mm 2 m/s 639 mmHg 97%
    01:00 +9°C° 0 mm 2 m/s 639 mmHg 97%
    02:00 +9°C° 0.8 mm 2 m/s 639 mmHg 97%
    03:00 +10°C° 0.8 mm 1 m/s 639 mmHg 97%
    04:00 +9°C° 0.8 mm 1 m/s 639 mmHg 97%
    05:00 +10°C° 0.8 mm 1 m/s 639 mmHg 96%
    06:00 +10°C° 0.8 mm 1 m/s 639 mmHg 95%
    07:00 +10°C° 0.8 mm 1 m/s 639 mmHg 95%
    08:00 +11°C° 0.1 mm 1 m/s 640 mmHg 91%
    09:00 +13°C° 0.1 mm 1 m/s 640 mmHg 87%
    10:00 +14°C° 0.1 mm 1 m/s 640 mmHg 83%
    11:00 +15°C° 0.3 mm 1 m/s 640 mmHg 80%
    12:00 +16°C° 0.3 mm 1 m/s 640 mmHg 77%
    13:00 +17°C° 0.3 mm 2 m/s 641 mmHg 74%
    14:00 +17°C° 0.5 mm 2 m/s 640 mmHg 75%
    15:00 +17°C° 0.5 mm 2 m/s 640 mmHg 76%
    16:00 +17°C° 0.5 mm 2 m/s 640 mmHg 77%
    17:00 +16°C° 0.4 mm 1 m/s 640 mmHg 82%
    18:00 +14°C° 0.4 mm 1 m/s 640 mmHg 88%
    19:00 +13°C° 0.4 mm 1 m/s 639 mmHg 93%
    20:00 +13°C° 0.2 mm 1 m/s 639 mmHg 93%
    21:00 +13°C° 0.2 mm 1 m/s 639 mmHg 93%
    22:00 +12°C° 0.2 mm 1 m/s 639 mmHg 93%
    23:00 +12°C° 0 mm 1 m/s 639 mmHg 92%

    Demain, 22 Août, Jeudi

    Heure Température Précipitation Vent Pression Humidité
    00:00 +12°C° 0 mm 1 m/s 639 mmHg 90%
    01:00 +12°C° 0 mm 1 m/s 639 mmHg 89%
    02:00 +12°C° 0.1 mm 1 m/s 639 mmHg 88%
    03:00 +12°C° 0.1 mm 1 m/s 638 mmHg 87%
    04:00 +12°C° 0.1 mm 1 m/s 638 mmHg 87%
    05:00 +13°C° 0 mm 1 m/s 639 mmHg 84%
    06:00 +14°C° 0 mm 1 m/s 639 mmHg 81%
    07:00 +15°C° 0 mm 1 m/s 640 mmHg 79%
    08:00 +18°C° 0 mm 1 m/s 640 mmHg 71%
    09:00 +19°C° 0 mm 1 m/s 641 mmHg 64%
    10:00 +21°C° 0 mm 1 m/s 642 mmHg 57%
    11:00 +22°C° 0.3 mm 1 m/s 642 mmHg 55%
    12:00 +22°C° 0.3 mm 1 m/s 642 mmHg 53%
    13:00 +23°C° 0.3 mm 2 m/s 642 mmHg 51%
    14:00 +21°C° 1.2 mm 2 m/s 641 mmHg 58%
    15:00 +20°C° 1.2 mm 2 m/s 641 mmHg 64%
    16:00 +20°C° 1.2 mm 2 m/s 640 mmHg 70%
    17:00 +19°C° 0.8 mm 1 m/s 640 mmHg 77%
    18:00 +18°C° 0.8 mm 1 m/s 640 mmHg 83%
    19:00 +16°C° 0.8 mm 1 m/s 640 mmHg 89%
    20:00 +15°C° 0.2 mm 1 m/s 640 mmHg 89%
    21:00 +14°C° 0.2 mm 1 m/s 640 mmHg 90%
    22:00 +13°C° 0.2 mm 1 m/s 640 mmHg 90%
    23:00 +13°C° 0 mm 1 m/s 639 mmHg 89%

    Après-demain, 23 Août, Vendredi

    Heure Température Précipitation Vent Pression Humidité
    00:00 +13°C° 0 mm 1 m/s 639 mmHg 88%
    01:00 +13°C° 0 mm 1 m/s 639 mmHg 87%
    02:00 +12°C° 0 mm 1 m/s 639 mmHg 87%
    03:00 +12°C° 0 mm 1 m/s 639 mmHg 87%
    04:00 +12°C° 0 mm 1 m/s 638 mmHg 86%
    05:00 +13°C° 0 mm 1 m/s 639 mmHg 85%
    06:00 +14°C° 0 mm 1 m/s 639 mmHg 83%
    07:00 +15°C° 0 mm 1 m/s 640 mmHg 82%
    08:00 +18°C° 0.1 mm 1 m/s 640 mmHg 75%
    09:00 +19°C° 0.1 mm 1 m/s 641 mmHg 69%
    10:00 +21°C° 0.1 mm 1 m/s 641 mmHg 62%
    11:00 +21°C° 0.7 mm 1 m/s 641 mmHg 61%
    12:00 +22°C° 0.7 mm 1 m/s 641 mmHg 60%
    13:00 +23°C° 0.7 mm 1 m/s 641 mmHg 60%
    14:00 +22°C° 1.4 mm 1 m/s 641 mmHg 63%
    15:00 +22°C° 1.4 mm 1 m/s 640 mmHg 67%
    16:00 +21°C° 1.4 mm 1 m/s 640 mmHg 70%
    17:00 +20°C° 1 mm 1 m/s 640 mmHg 76%
    18:00 +18°C° 1 mm 1 m/s 639 mmHg 81%
    19:00 +16°C° 1 mm 1 m/s 639 mmHg 87%
    20:00 +15°C° 0.3 mm 1 m/s 639 mmHg 87%
    21:00 +15°C° 0.3 mm 1 m/s 639 mmHg 86%
    22:00 +14°C° 0.3 mm 1 m/s 639 mmHg 86%
    23:00 +14°C° 0 mm 1 m/s 638 mmHg 86%

    24 Août, Samedi

    Heure Température Précipitation Vent Pression Humidité
    00:00 +13°C° 0 mm 1 m/s 638 mmHg 85%
    01:00 +13°C° 0 mm 1 m/s 637 mmHg 85%
    02:00 +12°C° 0 mm 1 m/s 637 mmHg 85%
    03:00 +12°C° 0 mm 1 m/s 637 mmHg 84%
    04:00 +12°C° 0 mm 1 m/s 637 mmHg 84%
    05:00 +13°C° 0 mm 1 m/s 637 mmHg 82%
    06:00 +14°C° 0 mm 1 m/s 638 mmHg 80%
    07:00 +15°C° 0 mm 1 m/s 638 mmHg 78%
    08:00 +18°C° 0 mm 1 m/s 639 mmHg 70%
    09:00 +20°C° 0 mm 1 m/s 639 mmHg 61%
    10:00 +22°C° 0 mm 1 m/s 640 mmHg 53%
    11:00 +23°C° 0.3 mm 1 m/s 640 mmHg 52%
    12:00 +23°C° 0.3 mm 1 m/s 640 mmHg 50%
    13:00 +24°C° 0.3 mm 1 m/s 640 mmHg 49%
    14:00 +23°C° 1.2 mm 1 m/s 639 mmHg 56%
    15:00 +22°C° 1.2 mm 1 m/s 639 mmHg 62%
    16:00 +21°C° 1.2 mm 1 m/s 638 mmHg 69%
    17:00 +20°C° 1.1 mm 1 m/s 638 mmHg 75%
    18:00 +19°C° 1.1 mm 1 m/s 638 mmHg 81%
    19:00 +15°C° 1.1 mm 0 m/s 637 mmHg 88%
    20:00 +16°C° 0.3 mm 1 m/s 637 mmHg 87%
    21:00 +15°C° 0.3 mm 1 m/s 637 mmHg 86%
    22:00 +15°C° 0.3 mm 1 m/s 637 mmHg 86%
    23:00 +14°C° 0 mm 1 m/s 637 mmHg 86%

    25 Août, Dimanche

    Heure Température Précipitation Vent Pression Humidité
    00:00 +14°C° 0 mm 1 m/s 637 mmHg 86%
    01:00 +13°C° 0 mm 1 m/s 636 mmHg 86%
    02:00 +13°C° 0 mm 1 m/s 636 mmHg 86%
    03:00 +12°C° 0 mm 1 m/s 636 mmHg 86%
    04:00 +12°C° 0 mm 1 m/s 636 mmHg 86%
    05:00 +13°C° 0 mm 1 m/s 636 mmHg 83%
    06:00 +15°C° 0 mm 1 m/s 637 mmHg 80%
    07:00 +15°C° 0 mm 0 m/s 637 mmHg 78%
    08:00 +17°C° 0.1 mm 0 m/s 638 mmHg 71%
    09:00 +20°C° 0.1 mm 1 m/s 639 mmHg 65%
    10:00 +22°C° 0.1 mm 1 m/s 639 mmHg 59%
    11:00 +22°C° 0.9 mm 1 m/s 639 mmHg 59%
    12:00 +23°C° 0.9 mm 1 m/s 639 mmHg 60%
    13:00 +23°C° 0.9 mm 1 m/s 638 mmHg 60%
    14:00 +22°C° 1.8 mm 1 m/s 638 mmHg 64%
    15:00 +22°C° 1.8 mm 1 m/s 638 mmHg 68%
    16:00 +21°C° 1.8 mm 1 m/s 637 mmHg 73%
    17:00 +20°C° 1 mm 1 m/s 637 mmHg 77%
    18:00 +18°C° 1 mm 1 m/s 637 mmHg 82%
    19:00 +15°C° 1 mm 0 m/s 637 mmHg 87%
    20:00 +15°C° 0.3 mm 0 m/s 637 mmHg 87%
    21:00 +14°C° 0.3 mm 0 m/s 637 mmHg 87%
    22:00 +14°C° 0.3 mm 1 m/s 637 mmHg 88%
    23:00 +13°C° 0 mm 0 m/s 637 mmHg 88%

    26 Août, Lundi

    Heure Température Précipitation Vent Pression Humidité
    00:00 +12°C° 0 mm 0 m/s 636 mmHg 89%
    01:00 +12°C° 0 mm 0 m/s 636 mmHg 89%
    02:00 +11°C° 0 mm 0 m/s 636 mmHg 89%
    03:00 +11°C° 0 mm 0 m/s 636 mmHg 89%
    04:00 +12°C° 0 mm 1 m/s 636 mmHg 89%
    05:00 +13°C° 0 mm 1 m/s 636 mmHg 87%
    06:00 +14°C° 0 mm 0 m/s 637 mmHg 84%
    07:00 +15°C° 0 mm 0 m/s 638 mmHg 82%
    08:00 +18°C° 0.1 mm 1 m/s 638 mmHg 74%
    09:00 +20°C° 0.1 mm 1 m/s 639 mmHg 67%
    10:00 +22°C° 0.1 mm 1 m/s 639 mmHg 60%
    11:00 +22°C° 0.7 mm 1 m/s 639 mmHg 56%
    12:00 +23°C° 0.7 mm 2 m/s 640 mmHg 52%
    13:00 +23°C° 0.7 mm 2 m/s 640 mmHg 47%
    14:00 +23°C° 0.3 mm 2 m/s 640 mmHg 46%
    15:00 +23°C° 0.3 mm 2 m/s 639 mmHg 45%
    16:00 +23°C° 0.3 mm 2 m/s 639 mmHg 43%
    17:00 +20°C° 0 mm 2 m/s 639 mmHg 54%
    18:00 +18°C° 0 mm 2 m/s 638 mmHg 65%
    19:00 +15°C° 0 mm 1 m/s 638 mmHg 76%
    20:00 +14°C° 0 mm 1 m/s 638 mmHg 79%
    21:00 +13°C° 0 mm 1 m/s 638 mmHg 82%
    22:00 +12°C° 0 mm 1 m/s 638 mmHg 84%
    23:00 +12°C° 0 mm 1 m/s 638 mmHg 83%
    Voir plus